Sachs Harbour Airport, Northwest Territories

Past 24 Hour Conditions

This table is a summary of hourly weather conditions for the past 24 hours. This summary includes the following parameters: temperature, humidity, dew point, wind speed and direction, air pressure, visibility and/or wind chill and humidex.
Date / Time
(MDT)
Conditions Temp (°C) Humidity (%) Dew Point (°C) Wind (km/h) Pressure (kPa) Visibility (km)
30 August 2014
2:00 N/A 8 80 5 ESE 24 100.1 N/A
1:00 N/A 8 80 5 ESE 25 100.1 N/A
00:00 N/A 8 83 5 ESE 23 100.1 N/A
29 August 2014
23:00 N/A 8 85 6 ESE 24 100.1 N/A
22:00 N/A 9 83 7 ESE 23 100.1 N/A
21:00 N/A 10 84 7 SE 19 100.1 N/A
20:00 N/A 10 82 7 SE 20 100.1 N/A
19:00 N/A 10 81 7 SE 25 100.1 N/A
18:00 N/A 10 81 7 SE 22 100.1 N/A
17:00 Partly Cloudy 11   77 7 SE 26 100.2 16
16:00 Partly Cloudy 11   78 7 SE 30 100.2 16
15:00 Partly Cloudy 11   82 8 SSE 34 100.2 16
14:00 Partly Cloudy 11   83 8 SSE 26 100.3 16
13:00 Partly Cloudy 10 86 8 SE 30 100.2 16
12:00 Partly Cloudy 9 82 6 ESE 24 100.2 16
11:00 Partly Cloudy 8 96 8 SE 24 100.3 16
10:00 Partly Cloudy 8 97 8 SE 22 100.3 16
9:00 Mostly Cloudy 7   97 7 ESE 24 100.3 16
8:00 Mostly Cloudy 7   97 7 ESE 28 100.3 16
7:00 N/A 7   99 7 ESE 22 100.2 N/A
6:00 N/A 7   99 6 ESE 17 100.2 N/A
5:00 N/A 7   99 6 SE 15 100.2 N/A
4:00 N/A 7   99 7 SE 17 100.2 N/A
3:00 N/A 7   99 7 SE 20 100.2 N/A
2:00 N/A 7   99 7 ESE 16 100.2 N/A
N/A
Not available
 ↑ 
Highest temperature
 ↓ 
Lowest temperature

If you require additional historical weather information, please visit Climate Data Online.